This is the latest recevied weather packets stored in our database for station/object G1YBJ-13. If no packets are shown the sender has not sent any weather packets the latest 10 day(s).
| Time | Temp. | Humidity | Pressure | Rain* | Wind** | Luminosity | Snow |
|---|---|---|---|---|---|---|---|
| 1777189851 | 8.89° C | 80% | 1026.8 hPa | - | - | - | - |
| 1777188949 | 8.33° C | 80% | 1026.9 hPa | - | - | - | - |
| 1777188048 | 8.33° C | 84% | 1026.8 hPa | - | - | - | - |
| 1777187148 | 7.78° C | 84% | 1026.6 hPa | - | - | - | - |
| 1777186246 | 7.78° C | 84% | 1026.7 hPa | - | - | - | - |
| 1777185344 | 7.22° C | 84% | 1026.6 hPa | - | - | - | - |
| 1777184442 | 7.22° C | 83% | 1026.6 hPa | - | - | - | - |
| 1777183541 | 6.67° C | 82% | 1026.5 hPa | - | - | - | - |
| 1777182639 | 6.67° C | 83% | 1026.3 hPa | - | - | - | - |
| 1777181738 | 6.11° C | 84% | 1026.2 hPa | - | - | - | - |
| 1777180837 | 6.11° C | 81% | 1026 hPa | - | - | - | - |
| 1777179935 | 6.11° C | 80% | 1025.9 hPa | - | - | - | - |
| 1777179035 | 6.11° C | 81% | 1025.8 hPa | - | - | - | - |
| 1777178133 | 6.11° C | 81% | 1025.7 hPa | - | - | - | - |
| 1777177232 | 6.67° C | 85% | 1025.7 hPa | - | - | - | - |
| 1777176330 | 7.22° C | 83% | 1025.8 hPa | - | - | - | - |
| 1777175429 | 7.78° C | 81% | 1025.8 hPa | - | - | - | - |
| 1777174529 | 7.22° C | 81% | 1025.8 hPa | - | - | - | - |
| 1777173628 | 7.22° C | 82% | 1025.7 hPa | - | - | - | - |
| 1777172726 | 7.22° C | 84% | 1025.6 hPa | - | - | - | - |
| 1777171825 | 7.22° C | 85% | 1025.4 hPa | - | - | - | - |
| 1777170923 | 7.22° C | 85% | 1025.4 hPa | - | - | - | - |
| 1777170022 | 7.22° C | 83% | 1025.3 hPa | - | - | - | - |
| 1777169120 | 7.22° C | 88% | 1025.2 hPa | - | - | - | - |
| 1777168218 | 7.22° C | 85% | 1025.2 hPa | - | - | - | - |
* Rain since midnight (hover to see other rain measurements)
** Current wind speed in m/s (hover to see current wind gust speed)